Location: Marcé
(47.5801°N, 0.3280°W)
Time: 00:18:11
(UTC+01:00)

Tiros 1 - Pass Details

Date: 08 December 2021
Orbit: 629 x 664 km, 48.4° (Epoch: 26 January)

Event Time Altitude Azimuth Distance (km) Brightness Sun altitude
Rises 19:46:37 0° 260° (W) 2,919 11.9 -25.4°
Reaches altitude 10° 19:48:55 10° 260° (W) 2,015 10.7 -25.8°
Enters shadow 19:53:01 69° 268° (W) 682 7.3 -26.5°
